Simultaneous Nadir Overpasses (SNOs) Predictions

Prediction of SNOs between GOES-16 and AQUA Satellite Orbit:

Table of predicted SNOs for the next 14.0 days since TLE Epoch: 7/30/2022
Index Date Time (GOES-16) GOES-16 Lat,Lon AQUA Lat,Lon Distance(km) Time Diff (sec)
1 07/31/2022 18:26:06 -0.02, -75.21 0.76, -71.42 430.52 80
2 08/01/2022 06:47:14 0.02, -75.21 0.29, -76.55 152.54 80
3 08/03/2022 06:31:55 0.02, -75.22 -0.32, -73.47 198.82 80
4 08/03/2022 18:53:13 -0.02, -75.23 -0.75, -78.63 387.00 80
5 08/05/2022 18:40:35 -0.02, -75.25 -0.06, -75.56 35.49 80
6 08/07/2022 18:30:37 0.01, -75.27 0.63, -72.50 315.51 80
7 08/08/2022 06:51:45 -0.01, -75.27 0.48, -77.62 267.17 80
8 08/10/2022 06:36:26 -0.01, -75.29 -0.16, -74.54 84.94 80
9 08/12/2022 06:23:47 -0.00, -75.31 -0.80, -71.46 437.77 80
10 08/12/2022 18:45:05 0.00, -75.32 -0.24, -76.63 147.59 80
